Fairbanks, AK

4:17 AM AKDT on May 23, 2017 (GMT -0800)
Fairbanks International

Weather History for PAFA - August, 2013

Change the Weather History Date:

Tuesday, August 27, 2013

  Actual Average Record
Temperature  
Mean Temperature 53 °F 53 °F  
Max Temperature 65 °F 63 °F 84 °F (1981)
Min Temperature 40 °F 43 °F 28 °F (1933)
Degree Days  
Heating Degree Days 12 12  
Month to date heating degree days 134 228  
Since 1 June heating degree days 274 496  
Since 1 July heating degree days 203 336  
Cooling Degree Days 0 0  
Month to date cooling degree days 24 0  
Year to date cooling degree days 226 55  
Since 1 June cooling degree days 213 54  
Growing Degree Days 2 (Base 50)    
Moisture  
Dew Point 38 °F    
Average Humidity 56    
Maximum Humidity 80    
Minimum Humidity 31    
Precipitation  
Precipitation 0.00 in 0.05 in 1.04 in (1930)
Month to date precipitation 1.92 1.67  
Year to date precipitation 5.70 7.36  
Snow  
Snow 0.00 in 0.00 in 0.00 in (2002)
Month to date snowfall 0.0 0.0  
Since 1 June snowfall 0.0 0.0  
Since 1 July snowfall 0.0 0.0  
Snow Depth 0.00 in    
Sea Level Pressure  
Sea Level Pressure 29.76 in    
Wind  
Wind Speed 6 mph (NE)    
Max Wind Speed 13 mph    
Max Gust Speed -    
Visibility 10 miles    
Events      
T = Trace of Precipitation, MM = Missing Value Source: NWS Daily Summary

Daily Weather History Graph

Daily Weather History Graph

Search for Another Location

Airport or City:

Trip Planner

Search our weather history database for the weather conditions in past years. The results will help you decide how hot, cold, wet, or windy it might be!

Date:

Astronomy

Aug. 27, 2013 Rise Set
Actual Time 6:17 AM AKDT 9:26 PM AKDT
Civil Twilight 5:19 AM AKDT 10:23 PM AKDT
Nautical Twilight 3:52 AM AKDT 11:47 PM AKDT
Astronomical Twilight Sun does not set Sun does not set
Moon 10:28 PM AKDT (8/27) 4:21 PM AKDT (8/27)
Length of Visible Light 17h 03m
Length of Day
15h 08m
Waning Gibbous, 55% of the Moon is Illuminated
Aug 27
Waning Gibbous
Aug 28
Last Quarter
Sep 5
New
Sep 12
First Quarter
Sep 19
Full

Hourly Weather History & Observations

Time (AKDT) Temp. Windchill Dew Point Humidity Pressure Visibility Wind Dir Wind Speed Gust Speed Precip Events Conditions
12:53 AM 48.9 °F - 30.9 °F 50% 29.80 in 10.0 mi North 9.2 mph - N/A   Scattered Clouds
1:53 AM 45.0 °F 40.6 °F 33.1 °F 63% 29.81 in 10.0 mi NNE 8.1 mph - N/A   Scattered Clouds
2:53 AM 44.1 °F 39.0 °F 32.0 °F 63% 29.81 in 10.0 mi NE 9.2 mph - N/A   Scattered Clouds
3:53 AM 43.0 °F 37.7 °F 32.0 °F 65% 29.81 in 10.0 mi NE 9.2 mph - N/A   Scattered Clouds
4:53 AM 43.0 °F 38.2 °F 32.0 °F 65% 29.82 in 10.0 mi NNE 8.1 mph - N/A   Scattered Clouds
5:53 AM 41.0 °F 36.4 °F 32.0 °F 70% 29.82 in 10.0 mi ENE 6.9 mph - N/A   Scattered Clouds
6:53 AM 41.0 °F 38.0 °F 32.0 °F 70% 29.83 in 10.0 mi ENE 4.6 mph - N/A   Mostly Cloudy
7:53 AM 43.0 °F 41.3 °F 34.0 °F 71% 29.83 in 10.0 mi ENE 3.5 mph - N/A   Mostly Cloudy
8:53 AM 46.0 °F 43.9 °F 34.0 °F 63% 29.83 in 10.0 mi NE 4.6 mph - N/A   Mostly Cloudy
9:53 AM 48.0 °F - 35.1 °F 61% 29.83 in 10.0 mi NE 6.9 mph - N/A   Mostly Cloudy
10:53 AM 51.1 °F - 36.0 °F 56% 29.81 in 10.0 mi East 4.6 mph - N/A   Mostly Cloudy
11:53 AM 55.0 °F - 37.9 °F 53% 29.79 in 10.0 mi ENE 5.8 mph - N/A   Mostly Cloudy
12:53 PM 57.0 °F - 39.0 °F 51% 29.78 in 10.0 mi Calm Calm - N/A   Mostly Cloudy
1:53 PM 60.1 °F - 39.9 °F 47% 29.77 in 10.0 mi Variable 3.5 mph - N/A   Mostly Cloudy
2:53 PM 62.1 °F - 41.0 °F 46% 29.75 in 10.0 mi SE 3.5 mph - N/A   Mostly Cloudy
3:53 PM 63.0 °F - 39.9 °F 43% 29.73 in 10.0 mi Calm Calm - N/A   Mostly Cloudy
4:53 PM 64.0 °F - 39.9 °F 41% 29.72 in 10.0 mi Calm Calm - N/A   Mostly Cloudy
5:53 PM 64.0 °F - 41.0 °F 43% 29.70 in 10.0 mi Calm Calm - N/A   Mostly Cloudy
6:53 PM 64.0 °F - 42.1 °F 45% 29.69 in 10.0 mi Calm Calm - N/A   Mostly Cloudy
7:53 PM 64.0 °F - 43.0 °F 46% 29.68 in 10.0 mi WSW 3.5 mph - N/A   Mostly Cloudy
8:53 PM 60.1 °F - 46.9 °F 62% 29.66 in 10.0 mi West 3.5 mph - N/A   Mostly Cloudy
9:53 PM 57.9 °F - 45.0 °F 62% 29.66 in 10.0 mi NNW 3.5 mph - N/A   Mostly Cloudy
10:53 PM 55.0 °F - 46.0 °F 72% 29.66 in 10.0 mi Calm Calm - N/A   Mostly Cloudy
11:53 PM 53.1 °F - 46.9 °F 80% 29.65 in 10.0 mi Calm Calm - N/A   Mostly Cloudy